• In Hungary
  • List of Countries
  • For 7 days
  • Water Temperature
  • Satellite Maps
  • Weather Map
  • News
  • Weather Widgets
  • user-avatar
    Login

    Hourly Weather Kapan

    Today, 22 August, Wednesday

    Time Temperature Precipitation Wind Pressure Humidity
    00:00 +20°C° 0 mm 2 mps 684 mmHg 72%
    01:00 +19°C° 0 mm 2 mps 684 mmHg 73%
    02:00 +20°C° 0 mm 1 mps 684 mmHg 73%
    03:00 +19°C° 0 mm 2 mps 684 mmHg 73%
    04:00 +19°C° 0 mm 2 mps 684 mmHg 72%
    05:00 +20°C° 0 mm 2 mps 684 mmHg 71%
    06:00 +20°C° 0 mm 2 mps 684 mmHg 70%
    07:00 +23°C° 0 mm 2 mps 684 mmHg 62%
    08:00 +25°C° 0 mm 2 mps 684 mmHg 54%
    09:00 +27°C° 0 mm 3 mps 685 mmHg 46%
    10:00 +28°C° 0 mm 3 mps 684 mmHg 42%
    11:00 +29°C° 0 mm 3 mps 684 mmHg 39%
    12:00 +30°C° 0 mm 3 mps 684 mmHg 35%
    13:00 +31°C° 0 mm 3 mps 684 mmHg 35%
    14:00 +32°C° 0 mm 4 mps 683 mmHg 35%
    15:00 +32°C° 0 mm 4 mps 683 mmHg 35%
    16:00 +30°C° 0 mm 4 mps 683 mmHg 39%
    17:00 +29°C° 0 mm 4 mps 683 mmHg 44%
    18:00 +28°C° 0 mm 4 mps 682 mmHg 49%
    19:00 +26°C° 0 mm 3 mps 683 mmHg 56%
    20:00 +25°C° 0 mm 3 mps 683 mmHg 63%
    21:00 +23°C° 0 mm 2 mps 683 mmHg 70%
    22:00 +23°C° 0 mm 2 mps 683 mmHg 72%
    23:00 +21°C° 0 mm 2 mps 684 mmHg 75%

    Tomorrow, 23 August, Thursday

    Time Temperature Precipitation Wind Pressure Humidity
    00:00 +21°C° 0 mm 2 mps 684 mmHg 77%
    01:00 +21°C° 0 mm 2 mps 684 mmHg 78%
    02:00 +20°C° 0 mm 2 mps 684 mmHg 79%
    03:00 +20°C° 0 mm 2 mps 684 mmHg 81%
    04:00 +20°C° 0 mm 2 mps 684 mmHg 80%
    05:00 +20°C° 0 mm 2 mps 684 mmHg 79%
    06:00 +20°C° 0 mm 2 mps 684 mmHg 78%
    07:00 +23°C° 0 mm 2 mps 685 mmHg 68%
    08:00 +25°C° 0 mm 2 mps 685 mmHg 59%
    09:00 +27°C° 0 mm 3 mps 686 mmHg 50%
    10:00 +28°C° 0 mm 3 mps 685 mmHg 46%
    11:00 +29°C° 0 mm 4 mps 685 mmHg 42%
    12:00 +30°C° 0 mm 4 mps 685 mmHg 38%
    13:00 +30°C° 0 mm 4 mps 685 mmHg 37%
    14:00 +30°C° 0 mm 4 mps 685 mmHg 37%
    15:00 +32°C° 0 mm 4 mps 685 mmHg 36%
    16:00 +29°C° 0 mm 4 mps 685 mmHg 39%
    17:00 +28°C° 0 mm 4 mps 685 mmHg 42%
    18:00 +27°C° 0 mm 4 mps 684 mmHg 45%
    19:00 +26°C° 0 mm 3 mps 685 mmHg 50%
    20:00 +24°C° 0 mm 3 mps 685 mmHg 56%
    21:00 +23°C° 0 mm 2 mps 685 mmHg 61%
    22:00 +21°C° 0 mm 2 mps 685 mmHg 64%
    23:00 +21°C° 0 mm 2 mps 686 mmHg 66%

    Day after tomorrow, 24 August, Friday

    Time Temperature Precipitation Wind Pressure Humidity
    00:00 +20°C° 0 mm 2 mps 686 mmHg 68%
    01:00 +20°C° 0 mm 2 mps 686 mmHg 70%
    02:00 +19°C° 0 mm 2 mps 686 mmHg 71%
    03:00 +19°C° 0 mm 2 mps 685 mmHg 73%
    04:00 +19°C° 0 mm 2 mps 686 mmHg 70%
    05:00 +19°C° 0 mm 2 mps 686 mmHg 68%
    06:00 +19°C° 0 mm 2 mps 686 mmHg 65%
    07:00 +21°C° 0 mm 2 mps 686 mmHg 56%
    08:00 +24°C° 0 mm 3 mps 686 mmHg 46%
    09:00 +26°C° 0 mm 3 mps 687 mmHg 36%
    10:00 +28°C° 0 mm 3 mps 686 mmHg 34%
    11:00 +29°C° 0 mm 3 mps 686 mmHg 31%
    12:00 +30°C° 0 mm 4 mps 686 mmHg 28%
    13:00 +30°C° 0 mm 4 mps 686 mmHg 29%
    14:00 +32°C° 0 mm 4 mps 685 mmHg 29%
    15:00 +32°C° 0 mm 4 mps 685 mmHg 29%
    16:00 +30°C° 0 mm 4 mps 684 mmHg 33%
    17:00 +29°C° 0 mm 4 mps 684 mmHg 38%
    18:00 +27°C° 0 mm 3 mps 684 mmHg 42%
    19:00 +26°C° 0 mm 3 mps 684 mmHg 49%
    20:00 +24°C° 0 mm 2 mps 684 mmHg 57%
    21:00 +21°C° 0 mm 2 mps 684 mmHg 64%
    22:00 +21°C° 0 mm 2 mps 684 mmHg 66%
    23:00 +21°C° 0 mm 2 mps 684 mmHg 67%

    25 August, Saturday

    Time Temperature Precipitation Wind Pressure Humidity
    00:00 +21°C° 0 mm 1 mps 684 mmHg 69%
    01:00 +21°C° 0 mm 1 mps 684 mmHg 70%
    02:00 +21°C° 0 mm 1 mps 684 mmHg 70%
    03:00 +21°C° 0 mm 1 mps 684 mmHg 70%
    04:00 +21°C° 0 mm 1 mps 684 mmHg 69%
    05:00 +21°C° 0 mm 1 mps 684 mmHg 68%
    06:00 +21°C° 0 mm 1 mps 684 mmHg 67%
    07:00 +23°C° 0 mm 2 mps 684 mmHg 59%
    08:00 +26°C° 0 mm 2 mps 685 mmHg 51%
    09:00 +28°C° 0 mm 2 mps 685 mmHg 43%
    10:00 +29°C° 0 mm 2 mps 685 mmHg 39%
    11:00 +30°C° 0 mm 3 mps 684 mmHg 35%
    12:00 +33°C° 0 mm 3 mps 684 mmHg 32%
    13:00 +33°C° 0 mm 3 mps 684 mmHg 31%
    14:00 +33°C° 0 mm 3 mps 683 mmHg 31%
    15:00 +34°C° 0 mm 3 mps 683 mmHg 30%
    16:00 +33°C° 0 mm 3 mps 682 mmHg 33%
    17:00 +30°C° 0 mm 3 mps 682 mmHg 35%
    18:00 +29°C° 0 mm 3 mps 682 mmHg 38%
    19:00 +27°C° 0 mm 3 mps 682 mmHg 42%
    20:00 +26°C° 0 mm 2 mps 682 mmHg 47%
    21:00 +24°C° 0 mm 2 mps 682 mmHg 51%
    22:00 +23°C° 0 mm 2 mps 682 mmHg 51%
    23:00 +23°C° 0 mm 2 mps 682 mmHg 51%

    26 August, Sunday

    Time Temperature Precipitation Wind Pressure Humidity
    00:00 +23°C° 0 mm 2 mps 682 mmHg 51%
    01:00 +22°C° 0 mm 1 mps 682 mmHg 50%
    02:00 +22°C° 0 mm 1 mps 682 mmHg 50%
    03:00 +22°C° 0 mm 1 mps 682 mmHg 50%
    04:00 +22°C° 0 mm 1 mps 682 mmHg 49%
    05:00 +22°C° 0 mm 1 mps 682 mmHg 48%
    06:00 +22°C° 0 mm 1 mps 682 mmHg 47%
    07:00 +25°C° 0 mm 2 mps 683 mmHg 41%
    08:00 +27°C° 0 mm 2 mps 683 mmHg 35%
    09:00 +29°C° 0 mm 2 mps 683 mmHg 29%
    10:00 +30°C° 0 mm 3 mps 683 mmHg 27%
    11:00 +33°C° 0 mm 3 mps 683 mmHg 25%
    12:00 +34°C° 0 mm 3 mps 683 mmHg 22%
    13:00 +34°C° 0 mm 3 mps 682 mmHg 22%
    14:00 +34°C° 0 mm 4 mps 682 mmHg 22%
    15:00 +34°C° 0 mm 4 mps 681 mmHg 21%
    16:00 +33°C° 0 mm 4 mps 681 mmHg 24%
    17:00 +31°C° 0 mm 3 mps 681 mmHg 26%
    18:00 +29°C° 0 mm 3 mps 680 mmHg 28%
    19:00 +28°C° 0 mm 3 mps 680 mmHg 32%
    20:00 +26°C° 0 mm 2 mps 680 mmHg 35%
    21:00 +24°C° 0 mm 2 mps 681 mmHg 39%
    22:00 +24°C° 0 mm 2 mps 680 mmHg 39%
    23:00 +23°C° 0 mm 2 mps 680 mmHg 40%

    27 August, Monday

    Time Temperature Precipitation Wind Pressure Humidity
    00:00 +23°C° 0 mm 2 mps 680 mmHg 41%
    01:00 +23°C° 0 mm 2 mps 680 mmHg 42%
    02:00 +21°C° 0 mm 2 mps 680 mmHg 42%
    03:00 +21°C° 0 mm 2 mps 680 mmHg 43%
    04:00 +21°C° 0 mm 2 mps 681 mmHg 43%
    05:00 +21°C° 0 mm 2 mps 681 mmHg 43%
    06:00 +21°C° 0 mm 2 mps 681 mmHg 43%
    07:00 +24°C° 0 mm 2 mps 681 mmHg 38%
    08:00 +27°C° 0 mm 2 mps 682 mmHg 34%
    09:00 +29°C° 0 mm 2 mps 682 mmHg 29%
    10:00 +30°C° 0 mm 3 mps 682 mmHg 27%
    11:00 +31°C° 0 mm 3 mps 681 mmHg 25%
    12:00 +34°C° 0 mm 3 mps 681 mmHg 23%
    13:00 +34°C° 0 mm 3 mps 681 mmHg 24%
    14:00 +34°C° 0 mm 3 mps 680 mmHg 24%
    15:00 +34°C° 0 mm 4 mps 680 mmHg 24%
    16:00 +33°C° 0 mm 4 mps 680 mmHg 28%
    17:00 +31°C° 0 mm 3 mps 680 mmHg 31%
    18:00 +29°C° 0 mm 3 mps 680 mmHg 34%
    19:00 +27°C° 0 mm 3 mps 680 mmHg 40%
    20:00 +26°C° 0 mm 2 mps 681 mmHg 45%
    21:00 +24°C° 0 mm 2 mps 681 mmHg 51%
    22:00 +23°C° 0 mm 2 mps 681 mmHg 52%
    23:00 +23°C° 0 mm 2 mps 681 mmHg 54%
    Show more